Date String (YYYY-MM-DD hh:mm:ss) UTC,Instrument flags,Ambient pressure (hPa),Sample flow (lpm),Bypass flow (lpm),Sample temperature (°C),Ambient temperature (°C),ASC tube jacket temperature (°C),LED temperature (°C),Box temperature (°C),Sample RH (%),Span deviation,Mass concentration (μg/m³),Mass concentration (μg/m³),Mass concentration (μg/m³)
DateTimeUTC,F1_M11,P_M11,Q1_M11,Q2_M11,T1_M11,T2_M11,T3_M11,T4_M11,T5_M11,U1_M11,ZSPAN_M11,X0_M11,X2_M11,X1_M11
2021-10-04 02:00:00,,0830.6,5.00,0.00,29.6,28.6,00.0,38.7,31.5,12.3,0002.0,0007.57,0004.10,0003.64
2021-10-04 02:01:00,,0830.7,5.00,0.00,29.7,28.7,00.0,38.7,31.5,12.4,0002.0,0007.70,0004.13,0003.65
2021-10-04 02:02:00,,0830.6,4.99,0.00,29.7,28.7,00.0,38.7,31.6,12.3,0001.9,0008.14,0004.12,0003.66
2021-10-04 02:03:00,,0830.7,5.00,0.00,29.7,28.8,00.0,38.7,31.6,12.3,0001.4,0007.88,0004.11,0003.66
2021-10-04 02:04:00,,0830.7,4.99,0.00,29.8,28.8,00.0,38.7,31.7,12.3,0001.5,0008.43,0004.11,0003.66
2021-10-04 02:05:00,,0830.7,4.99,0.00,29.8,28.9,00.0,38.8,31.7,12.3,0001.7,0008.43,0004.10,0003.65
2021-10-04 02:06:00,,0830.7,4.99,0.00,29.8,28.9,00.0,38.8,31.7,12.2,0001.7,0008.51,0004.13,0003.66
2021-10-04 02:07:00,,0830.7,4.99,0.00,29.9,29.0,00.0,38.8,31.8,12.1,0001.0,0008.78,0004.09,0003.66
2021-10-04 02:08:00,,0830.7,5.02,0.00,29.9,29.0,00.0,38.8,31.8,12.1,0000.6,0009.02,0004.09,0003.67
2021-10-04 02:09:00,,0830.7,5.00,0.00,29.9,29.0,00.0,38.9,31.8,12.1,0000.6,0009.08,0004.12,0003.67
2021-10-04 02:10:00,,0830.8,5.00,0.00,30.0,29.1,00.0,38.9,31.8,12.1,0000.8,0009.17,0004.13,0003.67
2021-10-04 02:11:00,,0830.7,5.01,0.00,29.9,28.2,00.0,38.9,31.5,12.1,0000.1,0009.19,0004.12,0003.69
2021-10-04 02:12:00,,0830.7,4.99,0.00,29.8,26.3,00.0,38.8,31.0,12.3,0000.0,0009.10,0004.10,0003.69
2021-10-04 02:13:00,,0830.7,5.01,0.00,29.6,26.1,00.0,38.8,30.9,12.3,0000.9,0008.61,0004.11,0003.68
2021-10-04 02:14:00,,0830.7,5.00,0.00,29.5,26.5,00.0,38.8,31.0,12.4,0000.6,0008.60,0004.13,0003.69
2021-10-04 02:15:00,,0830.7,4.99,0.00,29.5,26.9,00.0,38.7,31.1,12.4,0001.0,0007.95,0004.14,0003.69
2021-10-04 02:16:00,,0830.7,5.01,0.00,29.5,27.3,00.0,38.7,31.1,12.5,0000.7,0007.89,0004.13,0003.69
2021-10-04 02:17:00,,0830.8,5.00,0.00,29.5,27.6,00.0,38.7,31.2,12.5,0001.1,0008.25,0004.14,0003.70
2021-10-04 02:18:00,,0830.8,5.00,0.00,29.5,27.9,00.0,38.7,31.2,12.5,0001.7,0008.19,0004.18,0003.70
2021-10-04 02:19:00,,0830.8,5.01,0.00,29.5,28.1,00.0,38.7,31.3,12.5,0002.2,0007.82,0004.17,0003.70
2021-10-04 02:20:00,,0830.8,5.00,0.00,29.6,28.2,00.0,38.7,31.4,12.5,0002.4,0007.72,0004.15,0003.70
2021-10-04 02:21:00,,0830.8,4.99,0.00,29.6,28.4,00.0,38.7,31.4,12.4,0002.3,0007.98,0004.14,0003.69
2021-10-04 02:22:00,,0830.7,4.99,0.00,29.6,28.5,00.0,38.7,31.4,12.4,0001.9,0007.86,0004.11,0003.67
2021-10-04 02:23:00,,0830.7,5.01,0.00,29.6,28.6,00.0,38.7,31.5,12.4,0001.9,0008.05,0004.14,0003.67
2021-10-04 02:24:00,,0830.7,5.00,0.00,29.7,28.7,00.0,38.7,31.5,12.4,0002.3,0008.10,0004.14,0003.68
2021-10-04 02:25:00,,0830.8,5.00,0.00,29.7,28.7,00.0,38.7,31.5,12.3,0002.5,0008.06,0004.13,0003.69
2021-10-04 02:26:00,,0830.8,5.00,0.00,29.7,28.8,00.0,38.7,31.6,12.3,0002.1,0008.10,0004.13,0003.71
2021-10-04 02:27:00,,0830.9,4.99,0.00,29.8,28.8,00.0,38.7,31.6,12.3,0000.3,0008.22,0004.17,0003.72
2021-10-04 02:28:00,,0830.9,5.01,0.00,29.8,28.9,00.0,38.8,31.7,12.3,0001.0,0008.29,0004.19,0003.74
2021-10-04 02:29:00,,0830.9,5.00,0.00,29.8,29.0,00.0,38.8,31.7,12.3,0000.2,0008.21,0004.20,0003.74
2021-10-04 02:30:00,,0830.9,5.01,0.00,29.9,29.0,00.0,38.8,31.7,12.3,0000.9,0008.28,0004.21,0003.75
2021-10-04 02:31:00,,0830.9,5.00,0.00,29.9,29.0,00.0,38.8,31.8,12.2,0000.0,0008.40,0004.23,0003.76
2021-10-04 02:32:00,,0831.0,5.00,0.00,29.9,29.1,00.0,38.9,31.8,12.2,0000.0,0008.05,0004.21,0003.78
2021-10-04 02:33:00,,0830.9,5.00,0.00,30.0,29.1,00.0,38.9,31.8,12.1,0002.3,0007.99,0004.20,0003.80
2021-10-04 02:34:00,,0831.0,5.01,0.00,30.0,29.2,00.0,38.9,31.8,12.1,0001.9,0007.76,0004.16,0003.80
2021-10-04 02:35:00,,0830.9,5.01,0.00,30.0,29.0,00.0,38.9,31.8,12.0,0001.8,0007.78,0004.18,0003.80
2021-10-04 02:36:00,,0830.9,5.00,0.00,29.9,27.1,00.0,38.9,31.2,12.1,0000.6,0007.78,0004.16,0003.80
2021-10-04 02:37:00,,0830.9,5.00,0.00,29.7,26.0,00.0,38.9,30.9,12.1,0001.0,0007.67,0004.13,0003.78
2021-10-04 02:38:00,,0830.9,5.00,0.00,29.6,26.2,00.0,38.8,31.0,12.1,0000.6,0007.64,0004.09,0003.77
2021-10-04 02:39:00,,0830.9,5.00,0.00,29.6,26.6,00.0,38.8,31.1,12.2,0000.4,0007.65,0004.08,0003.76
2021-10-04 02:40:00,,0830.9,5.00,0.00,29.5,27.0,00.0,38.7,31.1,12.2,0001.7,0007.59,0004.06,0003.76
2021-10-04 02:41:00,,0830.9,4.99,0.00,29.5,27.4,00.0,38.7,31.2,12.2,0001.2,0007.97,0004.08,0003.76
2021-10-04 02:42:00,,0830.9,5.01,0.00,29.5,27.7,00.0,38.7,31.2,12.2,0001.0,0008.28,0004.11,0003.77
2021-10-04 02:43:00,,0830.9,5.00,0.00,29.5,27.9,00.0,38.7,31.3,12.2,0000.6,0008.40,0004.14,0003.77
2021-10-04 02:44:00,,0830.9,5.01,0.00,29.6,28.1,00.0,38.7,31.3,12.2,0000.3,0008.61,0004.19,0003.78
2021-10-04 02:45:00,,0830.9,4.99,0.00,29.6,28.2,00.0,38.7,31.4,12.1,0000.0,0008.74,0004.22,0003.78
2021-10-04 02:46:00,,0830.9,4.99,0.00,29.6,28.4,00.0,38.7,31.4,12.1,0000.0,0008.67,0004.21,0003.77
2021-10-04 02:47:00,,0830.9,5.01,0.00,29.6,28.5,00.0,38.7,31.5,12.1,0000.0,0008.62,0004.21,0003.77
2021-10-04 02:48:00,,0831.0,5.01,0.00,29.7,28.5,00.0,38.7,31.5,12.0,0000.0,0009.25,0004.24,0003.77
2021-10-04 02:49:00,,0831.0,5.00,0.00,29.7,28.6,00.0,38.7,31.5,12.1,0000.0,0009.52,0004.25,0003.79
2021-10-04 02:50:00,,0831.0,5.00,0.00,29.7,28.7,00.0,38.7,31.6,12.1,0000.0,0009.68,0004.22,0003.79
2021-10-04 02:51:00,,0831.0,4.99,0.00,29.7,28.8,00.0,38.8,31.6,12.1,0000.0,0010.04,0004.21,0003.79
2021-10-04 02:52:00,,0831.0,5.01,0.00,29.8,28.8,00.0,38.8,31.6,12.1,0000.0,0009.69,0004.18,0003.79
2021-10-04 02:53:00,,0831.1,5.00,0.00,29.8,28.9,00.0,38.8,31.6,12.0,0000.0,0009.29,0004.14,0003.78
2021-10-04 02:54:00,,0831.1,5.00,0.00,29.8,28.9,00.0,38.8,31.7,12.0,0000.8,0009.24,0004.12,0003.77
2021-10-04 02:55:00,,0831.0,5.00,0.00,29.8,28.9,00.0,38.8,31.7,12.0,0001.5,0009.31,0004.08,0003.75
2021-10-04 02:56:00,,0831.0,5.00,0.00,29.9,29.0,00.0,38.8,31.7,11.9,0001.8,0009.19,0004.05,0003.74
2021-10-04 02:57:00,,0831.1,5.00,0.00,29.9,29.0,00.0,38.9,31.7,11.9,0001.6,0009.11,0004.01,0003.74
2021-10-04 02:58:00,,0831.0,5.00,0.00,29.9,29.0,00.0,38.9,31.7,11.9,0001.6,0009.20,0004.01,0003.73
2021-10-04 02:59:00,,0831.0,4.99,0.00,29.9,29.1,00.0,38.9,31.7,12.0,0001.9,0008.66,0003.99,0003.72
